This demonstration page uses our WeatherBlox Daily Observations layout. Learn more.

Hourly Observations for September 9, 2016

Temp ( °F °C ) Dew Point ( °F °C ) Humidity (%) Winds ( mph kmh ) Pressure ( in mb ) Visibility ( mi km ) Precip ( " mm )
12:15 am 00:15 Mostly Cloudy with Mist and Fog 71 21.5 69 20.7 95 95 SSE 8 13 29.8 1009 4 6.437376 0 0
12:35 am 00:35 Cloudy with Mist and Fog 71 21.8 70 21 95 95 SSE 8 13 29.8 1009 2 3.218688 0 0
12:55 am 00:55 Cloudy with Mist and Fog 72 22 70 21.3 96 96 SSE 9 15 29.74 1007 2 3.218688 0 0
1:14 am 01:14 Cloudy with Mist and Fog 72 22 72 22 100 100 SSE 12 19 29.74 1007 2 3.218688 0 0
1:15 am 01:15 Cloudy with Mist and Fog 72 22.1 71 21.4 96 96 S 12 19 29.74 1007 2 3.218688 0 0
1:35 am 01:35 Cloudy with Mist and Fog 72 22 70 21.3 96 96 S 12 19 29.74 1007 3 4.828032 0 0
1:55 am 01:55 Cloudy with Mist and Fog 72 22 70 21.1 95 95 S 10 17 29.74 1007 5 8.04672 0 0
2:15 am 02:15 Cloudy with Mist and Fog 71 21.8 70 21 95 95 S 8 13 29.74 1007 5 8.04672 0 0
2:35 am 02:35 Cloudy 71 21.7 69 20.7 94 94 S 10 17 29.74 1007 7 11.265408 0 0
2:55 am 02:55 Cloudy 71 21.6 69 20.5 93 93 S 8 13 29.74 1007 7 11.265408 0 0
3:15 am 03:15 Cloudy with Mist and Fog 71 21.5 69 20.5 94 94 S 10 17 29.77 1008 4 6.437376 0 0
3:35 am 03:35 Cloudy with Mist and Fog 70 21.3 69 20.5 95 95 S 12 19 29.77 1008 0.75 1.207008 0 0
3:55 am 03:55 Cloudy 70 21 68 20 94 94 S 7 11 29.77 1008 7 11.265408 0 0
4:15 am 04:15 Cloudy 69 20.7 67 19.6 93 93 S 8 13 29.77 1008 10 16.09344 0 0
4:35 am 04:35 Cloudy 69 20.5 67 19.5 94 94 S 7 11 29.77 1008 7 11.265408 0 0
4:55 am 04:55 Cloudy with Mist and Fog 69 20.3 67 19.5 95 95 S 6 9 29.77 1008 5 8.04672 0 0
5:15 am 05:15 Cloudy with Mist and Fog 68 20.2 67 19.4 95 95 S 5 7 29.77 1008 4 6.437376 0 0
5:35 am 05:35 Cloudy with Mist and Fog 68 20 66 19.1 95 95 S 9 15 29.77 1008 0.75 1.207008 0 0
5:55 am 05:55 Cloudy with Mist and Fog 68 19.8 66 19.1 96 96 S 7 11 29.77 1008 0.75 1.207008 0 0
6:15 am 06:15 Cloudy with Mist and Fog 67 19.7 66 19 96 96 S 3 6 29.77 1008 1.25 2.01168 0 0
6:35 am 06:35 Cloudy with Mist and Fog 67 19.7 66 19 96 96 SE 3 6 29.8 1009 1 1.609344 0 0
6:55 am 06:55 Cloudy with Mist and Fog 67 19.5 66 19 97 97 Calm 29.8 1009 0.75 1.207008 0 0
7:15 am 07:15 Cloudy with Mist and Fog 67 19.5 66 18.9 96 96 ESE 5 7 29.8 1009 0.75 1.207008 0 0
7:35 am 07:35 Cloudy with Mist and Fog 67 19.4 66 18.8 96 96 SSW 5 7 29.8 1009 0.75 1.207008 0 0
7:55 am 07:55 Cloudy with Mist and Fog 67 19.3 66 18.7 96 96 Calm 29.83 1010 1 1.609344 0 0
8:15 am 08:15 Cloudy with Mist and Fog 67 19.3 66 18.7 96 96 Calm 29.8 1009 1 1.609344 0 0
8:35 am 08:35 Cloudy with Mist and Fog 67 19.4 66 18.7 96 96 Calm 29.83 1010 1.75 2.816352 0 0
8:55 am 08:55 Cloudy with Mist and Fog 67 19.6 66 19 96 96 SSE 5 7 29.8 1009 1.5 2.414016 0 0
9:15 am 09:15 Cloudy with Mist and Fog 67 19.5 66 19 97 97 Calm 29.83 1010 4 6.437376 0 0
9:35 am 09:35 Cloudy with Mist and Fog 67 19.5 66 18.9 96 96 SE 3 6 29.83 1010 3 4.828032 0 0
9:55 am 09:55 Cloudy 67 19.6 66 19 96 96 Calm 29.83 1010 7 11.265408 0 0
10:15 am 10:15 Cloudy 67 19.6 66 19 96 96 Calm 29.85 1011 7 11.265408 0 0
10:35 am 10:35 Cloudy with Mist and Fog 68 20 67 19.2 95 95 SSW 5 7 29.83 1010 5 8.04672 0 0
10:55 am 10:55 Cloudy with Mist and Fog 68 20.2 66 19.1 93 93 SSW 8 13 29.83 1010 4 6.437376 0 0
11:15 am 11:15 Cloudy 70 20.9 67 19.5 92 92 SW 9 15 29.83 1010 7 11.265408 0 0
11:35 am 11:35 Cloudy 71 21.5 67 19.5 88 88 SW 7 11 29.83 1010 10 16.09344 0 0
11:55 am 11:55 Cloudy 70 21.1 67 19.3 90 90 SW 8 13 29.83 1010 10 16.09344 0 0
12:15 pm 12:15 Cloudy 71 21.5 67 19.6 89 89 WSW 7 11 29.83 1010 7 11.265408 0 0
12:35 pm 12:35 Cloudy with Light Rain 68 20.2 65 18.5 90 90 N 14 22 29.85 1011 3 4.828032 0 0
12:55 pm 12:55 Cloudy with Rain 67 19.2 64 17.9 92 92 N 13 20 29.88 1012 5 8.04672 0.01 0.254
1:15 pm 13:15 Cloudy with Drizzle 66 18.7 62 16.9 89 89 N 14 22 29.91 1013 7 11.265408 0 0
1:34 pm 13:34 Cloudy with Light Rain 66 19 63 17 88 88 N 9 15 29.91 1013 10 16.09344 0 0
1:55 pm 13:55 Cloudy 65 18.6 59 14.9 79 79 N 16 26 29.91 1013 10 16.09344 0 0
2:15 pm 14:15 Cloudy 63 17.1 57 13.8 81 81 N 13 20 29.94 1014 5 8.04672 0.06 1.524
2:35 pm 14:35 Cloudy with Light Thunderstorms 60 15.7 57 14 90 90 NNE 15 24 29.97 1015 4 6.437376 0.2 5.08
2:55 pm 14:55 Cloudy with Thunderstorms 63 17 59 14.9 88 88 NE 7 11 29.94 1014 10 16.09344 0.2 5.08
3:15 pm 15:15 Mostly Cloudy 65 18.4 59 15.1 81 81 N 9 15 29.94 1014 10 16.09344 0 0
3:35 pm 15:35 Mostly Cloudy with Nearby Thunderstorms 68 20.2 57 13.7 66 66 N 18 30 29.91 1013 10 16.09344 0 0
3:55 pm 15:55 Cloudy with Nearby Thunderstorms 69 20.6 52 11.3 55 55 N 20 31 29.91 1013 10 16.09344 0 0
4:15 pm 16:15 Cloudy with Thunderstorms 69 20.6 51 10.4 52 52 N 18 30 29.94 1014 10 16.09344 0 0
4:35 pm 16:35 Cloudy 70 21.2 50 9.9 49 49 NNE 23 37 29.94 1014 10 16.09344 0 0
4:55 pm 16:55 Cloudy 71 21.8 48 8.7 43 43 NNE 21 33 29.94 1014 10 16.09344 0 0
5:15 pm 17:15 Partly Cloudy 70 21.1 45 7.2 41 41 N 25 41 29.97 1015 10 16.09344 0 0
5:35 pm 17:35 Sunny 70 21 43 5.9 38 38 N 22 35 29.97 1015 10 16.09344 0 0
5:54 pm 17:54 Sunny 70 21 43 6 38 38 N 16 26 30 1016 10 16.09344 0 0
5:55 pm 17:55 Sunny 69 20.8 43 6.2 39 39 N 16 26 30 1016 10 16.09344 0 0
6:15 pm 18:15 Sunny 69 20.7 43 6.2 39 39 N 15 24 30 1016 10 16.09344 0 0
6:35 pm 18:35 Sunny 68 20.2 44 6.5 41 41 N 13 20 30.06 1018 10 16.09344 0 0
6:55 pm 18:55 Sunny 67 19.7 45 7.3 45 45 N 13 20 30.06 1018 10 16.09344 0 0
7:15 pm 19:15 Sunny 66 18.7 46 7.5 48 48 N 13 20 30.06 1018 10 16.09344 0 0
7:35 pm 19:35 Sunny 64 18 45 7.4 50 50 N 9 15 30.06 1018 10 16.09344 0 0
7:55 pm 19:55 Sunny 62 16.5 46 8 57 57 N 9 15 30.09 1019 10 16.09344 0 0
8:15 pm 20:15 Clear 61 16 46 7.7 58 58 N 7 11 30.09 1019 10 16.09344 0 0
8:35 pm 20:35 Clear 59 15.1 47 8.1 63 63 NNW 7 11 30.09 1019 10 16.09344 0 0
8:55 pm 20:55 Clear 58 14.2 47 8.3 68 68 NNW 5 7 30.09 1019 10 16.09344 0 0
9:15 pm 21:15 Clear 56 13.2 47 8.3 72 72 NW 5 7 30.15 1021 10 16.09344 0 0
9:35 pm 21:35 Clear 55 13 47 8.4 74 74 NNW 7 11 30.12 1020 10 16.09344 0 0
9:55 pm 21:55 Clear 55 12.8 46 8 73 73 NNW 10 17 30.12 1020 10 16.09344 0 0
10:15 pm 22:15 Clear 56 13.6 44 6.7 63 63 NNW 7 11 30.15 1021 10 16.09344 0 0
10:35 pm 22:35 Clear 55 12.9 44 6.8 67 67 N 5 7 30.18 1022 10 16.09344 0 0
10:55 pm 22:55 Clear 54 12 45 7.1 72 72 Calm 30.21 1023 10 16.09344 0 0
11:15 pm 23:15 Clear 52 11.2 46 7.5 78 78 Calm 30.18 1022 10 16.09344 0 0
11:35 pm 23:35 Clear 50 10.1 46 7.7 85 85 NW 5 7 30.24 1024 10 16.09344 0 0
11:55 pm 23:55 Hazy 51 10.5 46 7.5 82 82 Calm 30.21 1023 5 8.04672 0 0

Powered by AerisWeather